Time,TemperatureF,DewpointF,PressureIn,WindDirection,WindDirectionDegrees,WindSpeedMPH,WindSpeedGustMPH,Humidity,HourlyPrecipIn,Conditions,Clouds,dailyrainin,SoftwareType,DateUTC
2013-05-27 00:00:00,75.1,67.8,29.65,SE,141,7.0,7.0,78,0.00,,,0.00,Wunderground v.1.15,2013-05-27 05:00:00,
2013-05-27 00:10:00,74.8,67.8,29.64,ESE,105,6.0,10.0,79,0.00,,,0.00,Wunderground v.1.15,2013-05-27 05:10:00,
2013-05-27 00:20:00,74.6,67.7,29.64,SE,125,7.0,7.0,79,0.00,,,0.00,Wunderground v.1.15,2013-05-27 05:20:00,
2013-05-27 00:30:00,74.4,67.5,29.63,SSE,152,7.0,7.0,79,0.00,,,0.00,Wunderground v.1.15,2013-05-27 05:30:00,
2013-05-27 00:40:00,74.3,67.7,29.63,SE,141,7.0,7.0,80,0.00,,,0.00,Wunderground v.1.15,2013-05-27 05:40:00,
2013-05-27 00:50:00,74.3,67.7,29.63,SE,138,7.0,7.0,80,0.00,,,0.00,Wunderground v.1.15,2013-05-27 05:50:00,
2013-05-27 01:00:00,74.3,67.7,29.63,SE,128,7.0,7.0,80,0.00,,,0.00,Wunderground v.1.15,2013-05-27 06:00:00,
2013-05-27 01:10:00,74.2,67.6,29.63,SE,143,7.0,7.0,80,0.00,,,0.00,Wunderground v.1.15,2013-05-27 06:10:00,
2013-05-27 01:20:00,74.1,67.5,29.63,SSE,149,8.0,9.0,80,0.00,,,0.00,Wunderground v.1.15,2013-05-27 06:20:00,
2013-05-27 01:30:00,73.9,67.7,29.62,SE,124,7.0,10.0,81,0.00,,,0.00,Wunderground v.1.15,2013-05-27 06:30:00,
2013-05-27 01:40:00,73.6,67.4,29.61,SSE,148,7.0,8.0,81,0.00,,,0.00,Wunderground v.1.15,2013-05-27 06:40:00,
2013-05-27 01:50:00,73.5,67.7,29.61,SE,127,8.0,8.0,82,0.00,,,0.00,Wunderground v.1.15,2013-05-27 06:50:00,
2013-05-27 02:00:00,73.3,67.5,29.61,SE,134,7.0,11.0,82,0.00,,,0.00,Wunderground v.1.15,2013-05-27 07:00:00,
2013-05-27 02:10:00,73.2,67.4,29.61,SSE,148,6.0,8.0,82,0.00,,,0.00,Wunderground v.1.15,2013-05-27 07:10:00,
2013-05-27 02:20:00,73.1,67.6,29.61,ESE,117,6.0,7.0,83,0.00,,,0.00,Wunderground v.1.15,2013-05-27 07:20:00,
2013-05-27 02:30:00,72.9,67.4,29.60,SSE,152,5.0,6.0,83,0.00,,,0.00,Wunderground v.1.15,2013-05-27 07:30:00,
2013-05-27 02:40:00,72.9,67.8,29.60,SSE,149,5.0,5.0,84,0.00,,,0.00,Wunderground v.1.15,2013-05-27 07:40:00,
2013-05-27 02:50:00,73.0,67.9,29.60,ESE,102,4.0,4.0,84,0.00,,,0.00,Wunderground v.1.15,2013-05-27 07:50:00,
2013-05-27 03:00:00,73.1,67.6,29.61,ESE,120,2.0,2.0,83,0.00,,,0.00,Wunderground v.1.15,2013-05-27 08:00:00,
2013-05-27 03:10:00,73.1,68.0,29.60,ESE,108,2.0,2.0,84,0.00,,,0.00,Wunderground v.1.15,2013-05-27 08:10:00,
2013-05-27 03:20:00,73.1,68.0,29.60,ESE,105,2.0,2.0,84,0.00,,,0.00,Wunderground v.1.15,2013-05-27 08:20:00,
2013-05-27 03:30:00,73.2,68.1,29.59,East,89,2.0,4.0,84,0.00,,,0.00,Wunderground v.1.15,2013-05-27 08:30:00,
2013-05-27 03:40:00,73.1,68.0,29.59,East,84,3.0,5.0,84,0.00,,,0.00,Wunderground v.1.15,2013-05-27 08:40:00,
2013-05-27 03:50:00,73.0,67.9,29.59,ESE,120,3.0,4.0,84,0.00,,,0.00,Wunderground v.1.15,2013-05-27 08:50:00,
2013-05-27 04:00:00,72.7,67.9,29.58,ESE,122,3.0,4.0,85,0.00,,,0.00,Wunderground v.1.15,2013-05-27 09:00:00,
2013-05-27 04:10:00,72.6,67.8,29.57,SSE,166,4.0,7.0,85,0.00,,,0.00,Wunderground v.1.15,2013-05-27 09:10:00,
2013-05-27 04:20:00,72.4,67.6,29.57,SE,139,6.0,6.0,85,0.00,,,0.00,Wunderground v.1.15,2013-05-27 09:20:00,
2013-05-27 04:30:00,72.0,67.6,29.57,ESE,115,4.0,4.0,86,0.00,,,0.00,Wunderground v.1.15,2013-05-27 09:30:00,
2013-05-27 04:40:00,71.7,67.3,29.58,ENE,65,2.0,2.0,86,0.00,,,0.00,Wunderground v.1.15,2013-05-27 09:40:00,
2013-05-27 04:50:00,71.3,67.2,29.58,ESE,114,2.0,2.0,87,0.00,,,0.00,Wunderground v.1.15,2013-05-27 09:50:00,
2013-05-27 05:00:00,70.9,67.2,29.57,ESE,116,1.0,2.0,88,0.00,,,0.00,Wunderground v.1.15,2013-05-27 10:00:00,
2013-05-27 05:10:00,70.6,67.2,29.57,East,99,2.0,3.0,89,0.00,,,0.00,Wunderground v.1.15,2013-05-27 10:10:00,
2013-05-27 05:20:00,70.4,67.3,29.58,NE,50,3.0,3.0,90,0.00,,,0.00,Wunderground v.1.15,2013-05-27 10:20:00,
2013-05-27 05:30:00,70.3,67.2,29.59,NNE,23,2.0,2.0,90,0.00,,,0.00,Wunderground v.1.15,2013-05-27 10:30:00,
2013-05-27 05:40:00,70.6,67.5,29.60,NNE,32,3.0,3.0,90,0.00,,,0.00,Wunderground v.1.15,2013-05-27 10:40:00,
2013-05-27 05:50:00,71.0,67.6,29.59,ENE,72,3.0,3.0,89,0.00,,,0.00,Wunderground v.1.15,2013-05-27 10:50:00,
2013-05-27 06:00:00,71.0,67.6,29.59,ESE,108,2.0,2.0,89,0.00,,,0.00,Wunderground v.1.15,2013-05-27 11:00:00,
2013-05-27 06:10:00,71.0,67.6,29.60,NNE,32,4.0,4.0,89,0.00,,,0.00,Wunderground v.1.15,2013-05-27 11:10:00,
2013-05-27 06:20:00,71.0,67.6,29.60,NE,44,4.0,4.0,89,0.00,,,0.00,Wunderground v.1.15,2013-05-27 11:20:00,
2013-05-27 06:30:00,70.9,67.8,29.60,ENE,70,3.0,4.0,90,0.00,,,0.00,Wunderground v.1.15,2013-05-27 11:30:00,
2013-05-27 06:40:00,70.8,67.7,29.60,NNE,30,3.0,3.0,90,0.00,,,0.00,Wunderground v.1.15,2013-05-27 11:40:00,
2013-05-27 06:50:00,70.9,67.8,29.61,NNE,32,4.0,4.0,90,0.00,,,0.00,Wunderground v.1.15,2013-05-27 11:50:00,
2013-05-27 07:00:00,71.1,68.0,29.60,ENE,61,4.0,4.0,90,0.00,,,0.00,Wunderground v.1.15,2013-05-27 12:00:00,
2013-05-27 07:10:00,71.2,68.1,29.60,ENE,69,4.0,4.0,90,0.00,,,0.00,Wunderground v.1.15,2013-05-27 12:10:00,
2013-05-27 07:20:00,71.3,67.9,29.60,East,82,4.0,4.0,89,0.00,,,0.00,Wunderground v.1.15,2013-05-27 12:20:00,
2013-05-27 07:30:00,71.5,68.1,29.60,NE,46,4.0,4.0,89,0.00,,,0.00,Wunderground v.1.15,2013-05-27 12:30:00,
2013-05-27 07:40:00,71.8,68.1,29.60,ENE,70,5.0,5.0,88,0.00,,,0.00,Wunderground v.1.15,2013-05-27 12:40:00,
2013-05-27 07:50:00,71.9,68.2,29.60,ENE,77,5.0,5.0,88,0.00,,,0.00,Wunderground v.1.15,2013-05-27 12:50:00,
2013-05-27 08:00:00,72.0,68.2,29.60,ENE,67,4.0,8.0,88,0.00,,,0.00,Wunderground v.1.15,2013-05-27 13:00:00,
2013-05-27 08:10:00,72.1,68.3,29.60,ENE,75,5.0,5.0,88,0.00,,,0.00,Wunderground v.1.15,2013-05-27 13:10:00,
2013-05-27 08:20:00,71.9,68.2,29.59,ENE,66,6.0,7.0,88,0.00,,,0.00,Wunderground v.1.15,2013-05-27 13:20:00,
2013-05-27 08:30:00,71.5,67.4,29.59,East,99,6.0,7.0,87,0.00,,,0.00,Wunderground v.1.15,2013-05-27 13:30:00,
2013-05-27 08:40:00,71.3,67.6,29.61,East,80,6.0,6.0,88,0.00,,,0.00,Wunderground v.1.15,2013-05-27 13:40:00,
2013-05-27 08:50:00,71.2,67.1,29.60,East,96,6.0,8.0,87,0.00,,,0.00,Wunderground v.1.15,2013-05-27 13:50:00,
2013-05-27 09:00:00,70.4,65.3,29.61,NNE,22,6.0,6.0,84,0.00,,,0.00,Wunderground v.1.15,2013-05-27 14:00:00,
2013-05-27 09:10:00,68.2,63.2,29.62,East,100,7.0,9.0,84,0.00,,,0.00,Wunderground v.1.15,2013-05-27 14:10:00,
2013-05-27 09:20:00,66.9,62.2,29.61,SE,132,8.0,8.0,85,0.00,,,0.00,Wunderground v.1.15,2013-05-27 14:20:00,
2013-05-27 09:30:00,66.6,61.9,29.62,East,84,8.0,8.0,85,0.00,,,0.00,Wunderground v.1.15,2013-05-27 14:30:00,
2013-05-27 09:40:00,66.0,61.4,29.62,North,358,9.0,12.0,85,0.00,,,0.00,Wunderground v.1.15,2013-05-27 14:40:00,
2013-05-27 09:50:00,65.5,61.2,29.62,WSW,246,9.0,9.0,86,0.00,,,0.00,Wunderground v.1.15,2013-05-27 14:50:00,
2013-05-27 10:00:00,65.2,60.9,29.63,East,80,9.0,10.0,86,0.00,,,0.00,Wunderground v.1.15,2013-05-27 15:00:00,
2013-05-27 10:10:00,65.4,61.4,29.62,SE,138,9.0,9.0,87,0.00,,,0.00,Wunderground v.1.15,2013-05-27 15:10:00,
2013-05-27 10:20:00,66.0,61.4,29.62,East,95,9.0,9.0,85,0.00,,,0.00,Wunderground v.1.15,2013-05-27 15:20:00,
2013-05-27 10:30:00,66.8,61.8,29.62,East,82,9.0,10.0,84,0.00,,,0.00,Wunderground v.1.15,2013-05-27 15:30:00,
2013-05-27 10:40:00,67.3,62.3,29.63,NNE,12,9.0,13.0,84,0.00,,,0.00,Wunderground v.1.15,2013-05-27 15:40:00,
2013-05-27 10:50:00,68.1,62.0,29.63,ESE,104,10.0,10.0,81,0.00,,,0.00,Wunderground v.1.15,2013-05-27 15:50:00,
2013-05-27 11:00:00,68.9,62.8,29.62,ENE,73,8.0,15.0,81,0.00,,,0.00,Wunderground v.1.15,2013-05-27 16:00:00,
2013-05-27 11:10:00,70.0,62.8,29.62,ESE,117,10.0,10.0,78,0.00,,,0.00,Wunderground v.1.15,2013-05-27 16:10:00,
2013-05-27 11:20:00,70.6,62.7,29.61,ESE,117,11.0,11.0,76,0.00,,,0.00,Wunderground v.1.15,2013-05-27 16:20:00,
2013-05-27 11:30:00,71.2,62.9,29.61,SE,130,12.0,12.0,75,0.00,,,0.00,Wunderground v.1.15,2013-05-27 16:30:00,
2013-05-27 11:40:00,72.8,63.6,29.60,ESE,120,10.0,10.0,73,0.00,,,0.00,Wunderground v.1.15,2013-05-27 16:40:00,
2013-05-27 11:50:00,74.0,64.4,29.60,East,98,9.0,9.0,72,0.00,,,0.00,Wunderground v.1.15,2013-05-27 16:50:00,
2013-05-27 12:00:00,75.1,64.2,29.60,SE,131,8.0,8.0,69,0.00,,,0.00,Wunderground v.1.15,2013-05-27 17:00:00,
2013-05-27 12:10:00,75.4,64.5,29.59,East,79,10.0,11.0,69,0.00,,,0.00,Wunderground v.1.15,2013-05-27 17:10:00,
2013-05-27 12:20:00,75.8,64.5,29.59,ESE,107,10.0,10.0,68,0.00,,,0.00,Wunderground v.1.15,2013-05-27 17:20:00,
2013-05-27 12:30:00,76.9,65.1,29.58,NE,54,10.0,10.0,67,0.00,,,0.00,Wunderground v.1.15,2013-05-27 17:30:00,
2013-05-27 12:40:00,77.4,66.0,29.58,ESE,104,9.0,9.0,68,0.00,,,0.00,Wunderground v.1.15,2013-05-27 17:40:00,
2013-05-27 12:50:00,78.5,66.6,29.58,SSE,149,8.0,8.0,67,0.00,,,0.00,Wunderground v.1.15,2013-05-27 17:50:00,
2013-05-27 13:00:00,79.3,67.4,29.58,SSE,150,8.0,8.0,67,0.00,,,0.00,Wunderground v.1.15,2013-05-27 18:00:00,
2013-05-27 13:10:00,78.4,67.0,29.57,ESE,120,11.0,11.0,68,0.00,,,0.00,Wunderground v.1.15,2013-05-27 18:10:00,
2013-05-27 13:20:00,78.9,67.0,29.57,SSE,147,9.0,9.0,67,0.00,,,0.00,Wunderground v.1.15,2013-05-27 18:20:00,
2013-05-27 13:30:00,79.3,67.0,29.57,East,90,9.0,10.0,66,0.00,,,0.00,Wunderground v.1.15,2013-05-27 18:30:00,
2013-05-27 13:40:00,79.0,67.1,29.56,SE,141,10.0,12.0,67,0.00,,,0.00,Wunderground v.1.15,2013-05-27 18:40:00,
2013-05-27 13:50:00,80.1,67.7,29.56,NNW,342,9.0,9.0,66,0.00,,,0.00,Wunderground v.1.15,2013-05-27 18:50:00,
2013-05-27 14:00:00,79.8,67.4,29.56,SSW,205,8.0,8.0,66,0.00,,,0.00,Wunderground v.1.15,2013-05-27 19:00:00,
2013-05-27 14:10:00,79.8,67.4,29.55,SSE,159,7.0,9.0,66,0.00,,,0.00,Wunderground v.1.15,2013-05-27 19:10:00,
2013-05-27 14:20:00,80.5,68.1,29.54,ESE,119,9.0,9.0,66,0.00,,,0.00,Wunderground v.1.15,2013-05-27 19:20:00,
2013-05-27 14:30:00,81.0,68.1,29.53,East,100,9.0,9.0,65,0.00,,,0.00,Wunderground v.1.15,2013-05-27 19:30:00,
2013-05-27 14:40:00,80.6,67.3,29.53,ENE,72,8.0,10.0,64,0.00,,,0.00,Wunderground v.1.15,2013-05-27 19:40:00,
2013-05-27 14:50:00,80.4,68.0,29.53,East,79,8.0,9.0,66,0.00,,,0.00,Wunderground v.1.15,2013-05-27 19:50:00,
2013-05-27 15:00:00,81.6,68.7,29.51,East,79,6.0,8.0,65,0.00,,,0.00,Wunderground v.1.15,2013-05-27 20:00:00,
2013-05-27 15:10:00,82.2,68.8,29.50,ENE,72,8.0,8.0,64,0.00,,,0.00,Wunderground v.1.15,2013-05-27 20:10:00,
2013-05-27 15:20:00,82.7,69.3,29.50,SE,137,7.0,7.0,64,0.00,,,0.00,Wunderground v.1.15,2013-05-27 20:20:00,
2013-05-27 15:30:00,82.6,69.2,29.49,SE,129,8.0,8.0,64,0.00,,,0.00,Wunderground v.1.15,2013-05-27 20:30:00,
2013-05-27 15:40:00,82.7,69.7,29.47,East,94,7.0,8.0,65,0.00,,,0.00,Wunderground v.1.15,2013-05-27 20:40:00,
2013-05-27 15:50:00,83.3,70.3,29.47,ESE,110,6.0,6.0,65,0.00,,,0.00,Wunderground v.1.15,2013-05-27 20:50:00,
2013-05-27 16:00:00,84.3,70.8,29.46,ESE,117,8.0,8.0,64,0.00,,,0.00,Wunderground v.1.15,2013-05-27 21:00:00,
2013-05-27 16:10:00,84.7,70.7,29.46,ESE,103,7.0,8.0,63,0.00,,,0.00,Wunderground v.1.15,2013-05-27 21:10:00,
2013-05-27 16:20:00,84.8,71.3,29.44,ESE,121,7.0,9.0,64,0.00,,,0.00,Wunderground v.1.15,2013-05-27 21:20:00,
2013-05-27 16:30:00,85.9,72.3,29.44,NNE,32,7.0,11.0,64,0.00,,,0.00,Wunderground v.1.15,2013-05-27 21:30:00,
2013-05-27 16:40:00,87.8,71.2,29.44,SE,132,7.0,7.0,58,0.00,,,0.00,Wunderground v.1.15,2013-05-27 21:40:00,
2013-05-27 16:50:00,88.8,71.1,29.44,SSE,152,9.0,9.0,56,0.00,,,0.00,Wunderground v.1.15,2013-05-27 21:50:00,
2013-05-27 17:00:00,88.4,71.7,29.43,South,188,9.0,9.0,58,0.00,,,0.00,Wunderground v.1.15,2013-05-27 22:00:00,
2013-05-27 17:10:00,88.4,71.7,29.43,SE,136,8.0,8.0,58,0.00,,,0.00,Wunderground v.1.15,2013-05-27 22:10:00,
2013-05-27 17:20:00,87.5,71.4,29.41,SSE,166,9.0,12.0,59,0.00,,,0.00,Wunderground v.1.15,2013-05-27 22:20:00,
2013-05-27 17:30:00,87.3,71.2,29.39,SE,138,9.0,9.0,59,0.00,,,0.00,Wunderground v.1.15,2013-05-27 22:30:00,
2013-05-27 17:40:00,87.6,71.5,29.39,SSE,153,12.0,12.0,59,0.00,,,0.00,Wunderground v.1.15,2013-05-27 22:40:00,
2013-05-27 17:50:00,88.1,72.0,29.38,SE,146,10.0,11.0,59,0.00,,,0.00,Wunderground v.1.15,2013-05-27 22:50:00,
2013-05-27 18:00:00,87.7,72.1,29.37,SSW,197,10.0,11.0,60,0.00,,,0.00,Wunderground v.1.15,2013-05-27 23:00:00,
2013-05-27 18:10:00,86.9,71.8,29.35,SSE,155,10.0,11.0,61,0.00,,,0.00,Wunderground v.1.15,2013-05-27 23:10:00,
2013-05-27 18:20:00,86.0,71.5,29.36,SSE,151,11.0,11.0,62,0.00,,,0.00,Wunderground v.1.15,2013-05-27 23:20:00,
2013-05-27 18:30:00,85.0,71.5,29.35,SSE,152,11.0,11.0,64,0.00,,,0.00,Wunderground v.1.15,2013-05-27 23:30:00,
2013-05-27 18:40:00,83.9,71.3,29.34,SE,128,10.0,10.0,66,0.00,,,0.00,Wunderground v.1.15,2013-05-27 23:40:00,
2013-05-27 18:50:00,81.3,72.2,29.35,SE,141,9.0,11.0,74,0.31,,,0.02,Wunderground v.1.15,2013-05-27 23:50:00,
2013-05-27 19:00:00,79.4,71.6,29.37,SSW,200,8.0,8.0,77,0.10,,,0.03,Wunderground v.1.15,2013-05-28 00:00:00,
2013-05-27 19:10:00,79.2,71.7,29.38,ESE,104,7.0,7.0,78,0.04,,,0.03,Wunderground v.1.15,2013-05-28 00:10:00,
2013-05-27 19:20:00,80.6,71.1,29.39,SSE,165,11.0,11.0,73,0.00,,,0.03,Wunderground v.1.15,2013-05-28 00:20:00,
2013-05-27 19:30:00,80.6,71.5,29.38,SE,146,9.0,9.0,74,0.00,,,0.03,Wunderground v.1.15,2013-05-28 00:30:00,
2013-05-27 19:40:00,79.9,70.9,29.37,SE,127,7.0,14.0,74,0.00,,,0.03,Wunderground v.1.15,2013-05-28 00:40:00,
2013-05-27 19:50:00,80.0,71.0,29.36,SSW,192,11.0,12.0,74,0.00,,,0.03,Wunderground v.1.15,2013-05-28 00:50:00,
2013-05-27 20:00:00,79.9,70.9,29.38,South,178,11.0,11.0,74,0.00,,,0.03,Wunderground v.1.15,2013-05-28 01:00:00,
2013-05-27 20:10:00,80.3,70.9,29.40,South,184,10.0,13.0,73,0.00,,,0.03,Wunderground v.1.15,2013-05-28 01:10:00,
2013-05-27 20:20:00,81.9,70.7,29.40,South,186,6.0,6.0,69,0.00,,,0.03,Wunderground v.1.15,2013-05-28 01:20:00,
2013-05-27 20:30:00,80.4,70.5,29.40,WNW,301,4.0,6.0,72,0.00,,,0.03,Wunderground v.1.15,2013-05-28 01:30:00,
2013-05-27 20:40:00,78.0,68.6,29.41,West,277,4.0,4.0,73,0.00,,,0.03,Wunderground v.1.15,2013-05-28 01:40:00,
2013-05-27 20:50:00,76.9,68.8,29.40,SSE,155,2.0,2.0,76,0.00,,,0.03,Wunderground v.1.15,2013-05-28 01:50:00,
2013-05-27 21:00:00,76.1,68.7,29.42,SSE,156,1.0,10.0,78,0.00,,,0.03,Wunderground v.1.15,2013-05-28 02:00:00,
2013-05-27 21:10:00,76.5,68.4,29.45,South,184,9.0,9.0,76,0.00,,,0.03,Wunderground v.1.15,2013-05-28 02:10:00,
2013-05-27 21:20:00,76.3,68.2,29.44,SSW,195,6.0,7.0,76,0.00,,,0.03,Wunderground v.1.15,2013-05-28 02:20:00,
2013-05-27 21:30:00,76.1,67.6,29.44,West,274,3.0,6.0,75,0.00,,,0.03,Wunderground v.1.15,2013-05-28 02:30:00,
2013-05-27 21:40:00,74.3,67.0,29.46,SSW,208,3.0,3.0,78,0.00,,,0.03,Wunderground v.1.15,2013-05-28 02:40:00,
2013-05-27 21:50:00,73.1,66.6,29.46,SE,137,3.0,3.0,80,0.00,,,0.03,Wunderground v.1.15,2013-05-28 02:50:00,
2013-05-27 22:00:00,72.2,66.4,29.47,WNW,294,1.0,1.0,82,0.00,,,0.03,Wunderground v.1.15,2013-05-28 03:00:00,
2013-05-27 22:10:00,71.5,66.1,29.47,NW,305,0.0,0.0,83,0.00,,,0.03,Wunderground v.1.15,2013-05-28 03:10:00,
2013-05-27 22:20:00,71.3,65.9,29.47,WNW,285,0.0,0.0,83,0.00,,,0.03,Wunderground v.1.15,2013-05-28 03:20:00,
2013-05-27 22:30:00,71.2,66.1,29.48,WNW,285,0.0,0.0,84,0.00,,,0.03,Wunderground v.1.15,2013-05-28 03:30:00,
2013-05-27 22:40:00,71.0,65.9,29.48,WNW,293,0.0,0.0,84,0.00,,,0.03,Wunderground v.1.15,2013-05-28 03:40:00,
2013-05-27 22:50:00,70.9,66.2,29.51,WNW,296,2.0,7.0,85,0.00,,,0.03,Wunderground v.1.15,2013-05-28 03:50:00,
2013-05-27 23:00:00,71.2,66.1,29.51,SSW,194,4.0,4.0,84,0.00,,,0.03,Wunderground v.1.15,2013-05-28 04:00:00,
2013-05-27 23:10:00,71.3,66.2,29.51,South,191,2.0,2.0,84,0.00,,,0.03,Wunderground v.1.15,2013-05-28 04:10:00,
2013-05-27 23:20:00,71.4,66.3,29.51,SSW,210,2.0,2.0,84,0.00,,,0.03,Wunderground v.1.15,2013-05-28 04:20:00,
2013-05-27 23:30:00,71.2,66.1,29.51,SW,232,0.0,0.0,84,0.00,,,0.03,Wunderground v.1.15,2013-05-28 04:30:00,
2013-05-27 23:40:00,71.0,66.6,29.52,WNW,288,0.0,0.0,86,0.00,,,0.03,Wunderground v.1.15,2013-05-28 04:40:00,
2013-05-27 23:50:00,70.9,66.8,29.52,WNW,288,1.0,1.0,87,0.00,,,0.03,Wunderground v.1.15,2013-05-28 04:50:00,